FW3030 Weather Reports


Display with metric or nautical units.
time (UTC)temp
F
wind
direction
speed
MPH
gust
MPH
rain 1hr
in
rain 24hr
in
rain mn
in
humidity
%
barometer
mb
20260903004602 80 0 0.0 2.0 0.00 0.00 0.00 58 1011.5
20260903003101 81 0 0.0 2.0 0.00 0.00 0.00 56 1011.5
20260903001608 82 49 0.0 3.0 0.00 0.00 0.00 55 1011.4
20260903000104 83 0 1.0 3.0 0.00 0.00 0.00 53 1011.3
20260902234605 84 27 0.0 5.0 0.00 0.00 0.00 51 1011.4
20260902233108 85 39 1.0 3.0 0.00 0.00 0.00 49 1011.3
20260902231602 86 52 1.0 4.0 0.00 0.00 0.00 50 1011.4
20260902230124 86 42 1.0 5.0 0.00 0.00 0.00 50 1011.4
20260902224604 86 40 1.0 6.0 0.00 0.00 0.00 50 1011.2
20260902223102 86 0 1.0 5.0 0.00 0.00 0.00 48 1011.3
20260902221610 88 63 1.0 4.0 0.00 0.00 0.00 47 1011.5
20260902220110 87 77 1.0 7.0 0.00 0.00 0.00 45 1011.7
20260902214633 88 44 2.0 4.0 0.00 0.00 0.00 46 1011.7
20260902213103 88 42 2.0 5.0 0.00 0.00 0.00 44 1011.7
20260902211606 88 85 1.0 4.0 0.00 0.00 0.00 47 1011.9
20260902210135 88 28 1.0 5.0 0.00 0.00 0.00 44 1011.9
20260902204603 88 0 1.0 4.0 0.00 0.00 0.00 44 1012.0
20260902203106 88 45 1.0 4.0 0.00 0.00 0.00 43 1012.1
20260902201619 88 0 1.0 5.0 0.00 0.00 0.00 43 1012.0
20260902200112 87 0 1.0 5.0 0.00 0.00 0.00 46 1012.3
20260902194603 87 29 2.0 7.0 0.00 0.00 0.00 42 1012.4
20260902193120 86 40 1.0 4.0 0.00 0.00 0.00 44 1012.7
20260902191604 86 0 0.0 5.0 0.00 0.00 0.00 47 1012.8
20260902190127 86 25 1.0 4.0 0.00 0.00 0.00 45 1012.8
20260902184619 86 17 2.0 4.0 0.00 0.00 0.00 45 1013.0
20260902183122 85 149 1.0 5.0 0.00 0.00 0.00 47 1013.0
20260902181624 84 66 1.0 4.0 0.00 0.00 0.00 46 1013.4
20260902180113 84 42 2.0 5.0 0.00 0.00 0.00 46 1013.2
20260902174605 83 26 0.0 4.0 0.00 0.00 0.00 46 1013.5
20260902173102 83 38 1.0 4.0 0.00 0.00 0.00 50 1013.8
20260902171620 81 43 1.0 3.0 0.00 0.00 0.00 54 1013.8
20260902170103 81 0 0.0 6.0 0.00 0.00 0.00 54 1013.6
20260902164609 81 0 1.0 6.0 0.00 0.00 0.00 55 1013.6
20260902163106 80 0 1.0 4.0 0.00 0.00 0.00 57 1013.7
20260902161605 78 84 1.0 3.0 0.00 0.00 0.00 62 1013.6
20260902160105 76 43 1.0 3.0 0.00 0.00 0.00 65 1013.7
20260902154604 74 5 0.0 2.0 0.00 0.00 0.00 70 1013.6
20260902153104 73 0 0.0 2.0 0.00 0.00 0.00 70 1013.9
20260902151603 73 0 0.0 2.0 0.00 0.00 0.00 72 1013.9
20260902144606 72 69 0.0 2.0 0.00 0.00 0.00 74 1013.7
20260902143108 71 0 0.0 2.0 0.00 0.00 0.00 77 1013.5
20260902141604 70 0 0.0 1.0 0.00 0.00 0.00 78 1013.6
20260902140111 69 69 0.0 2.0 0.00 0.00 0.00 80 1013.4
20260902134621 68 0 0.0 2.0 0.00 0.00 0.00 84 1013.6
20260902133102 66 27 0.0 2.0 0.00 0.00 0.00 88 1013.6
20260902131602 64 0 0.0 1.0 0.00 0.00 0.00 89 1013.7
20260902130106 63 0 0.0 1.0 0.00 0.00 0.00 88 1013.8
20260902124603 63 0 0.0 1.0 0.00 0.00 0.00 88 1013.8
20260902123103 63 27 0.0 2.0 0.00 0.00 0.00 87 1013.9
20260902121600 63 0 0.0 3.0 0.00 0.00 0.00 86 1013.8
20260902120101 63 0 0.0 1.0 0.00 0.00 0.00 86 1013.6
20260902114604 63 0 0.0 1.0 0.00 0.00 0.00 85 1013.7
20260902113109 63 0 0.0 0.0 0.00 0.00 0.00 84 1013.8
20260902111601 63 0 0.0 0.0 0.00 0.00 0.00 84 1013.6
20260902110103 63 0 0.0 0.0 0.00 0.00 0.00 83 1013.8
20260902104600 63 0 0.0 0.0 0.00 0.00 0.00 82 1013.7
20260902103103 64 0 0.0 0.0 0.00 0.00 0.00 82 1013.5
20260902101603 64 0 0.0 1.0 0.00 0.00 0.00 82 1013.3
20260902100106 65 69 0.0 1.0 0.00 0.00 0.00 81 1013.2
20260902094605 65 0 0.0 1.0 0.00 0.00 0.00 79 1013.7
20260902093101 66 0 0.0 0.0 0.00 0.00 0.00 79 1013.4
20260902091605 66 0 0.0 1.0 0.00 0.00 0.00 78 1013.4
20260902084609 67 0 0.0 0.0 0.00 0.00 0.00 77 1013.6
20260902083108 68 0 0.0 0.0 0.00 0.00 0.00 77 1013.6
20260902081603 68 0 0.0 1.0 0.00 0.00 0.00 77 1013.5
20260902074614 67 0 0.0 2.0 0.00 0.00 0.00 77 1013.0
20260902073101 67 0 0.0 3.0 0.00 0.00 0.00 78 1012.8
20260902071602 67 80 0.0 0.0 0.00 0.00 0.00 79 1013.1
20260902064605 68 0 0.0 0.0 0.00 0.00 0.00 77 1013.1
20260902063116 68 0 0.0 0.0 0.00 0.00 0.00 77 1013.3
20260902061608 68 0 0.0 2.0 0.00 0.00 0.00 77 1013.3
20260902060131 68 0 0.0 2.0 0.00 0.00 0.00 78 1013.5
20260902054611 69 0 0.0 1.0 0.00 0.00 0.00 78 1013.6
20260902053107 69 0 0.0 1.0 0.00 0.00 0.00 78 1013.7
20260902051603 69 0 0.0 1.0 0.00 0.00 0.00 77 1013.9
20260902050103 70 0 0.0 2.0 0.00 0.00 0.00 76 1014.0
20260902044612 70 0 0.0 0.0 0.00 0.00 0.00 74 1014.2
20260902043115 70 0 0.0 0.0 0.00 0.00 0.00 74 1014.1
20260902041611 70 0 0.0 0.0 0.00 0.00 0.00 74 1013.9
20260902040105 71 0 0.0 0.0 0.00 0.00 0.00 74 1013.9
20260902034617 71 0 0.0 0.0 0.00 0.00 0.00 74 1014.2
20260902033101 71 0 0.0 0.0 0.00 0.00 0.00 72 1014.2
20260902031607 72 0 0.0 0.0 0.00 0.00 0.00 71 1014.2
20260902030105 72 0 0.0 0.0 0.00 0.00 0.00 70 1014.2
20260902024604 73 0 0.0 0.0 0.00 0.00 0.00 69 1014.3
20260902023104 73 0 0.0 0.0 0.00 0.00 0.00 68 1014.1
20260902021608 73 0 0.0 1.0 0.00 0.00 0.00 68 1013.9
20260902014600 75 0 0.0 0.0 0.00 0.00 0.00 63 1013.8
20260902013101 75 0 0.0 0.0 0.00 0.00 0.00 60 1013.7
20260902011603 76 0 0.0 0.0 0.00 0.00 0.00 59 1013.4